Rochester Track Club | Rochester, MN
Advanced Search


Subscription Login
LOGIN | SUBSCRIBE

Join RTC
Member area
Resources
Clothing
Awards
Galleries
Sponsors
Contacts
Videos



home : results : 2019
November 13, 2019

24th Annual Spirit Run Results (10/26/2019)
Oct. 26, 2019
5K Results
24nd Annual Spirit Run 5K

10/26/2019

Rochester, Minnesota



OVERALL RESULTS



Place Name Age S Time Pace

===== ========================== === = ======= =====

1 Matthew Hadad 15 M 19:27 6:16

2 Joshua Yetter 16 M 20:35 6:38

3 Gerry Werven 57 M 21:26 6:54

4 Jackson Yetter 14 M 21:34 6:57

5 Eric Waldbillig 15 M 23:47 7:40

6 Dan Jerghiuta 47 M 24:06 7:46

7 Christopher Tweet 10 M 24:27 7:53

8 Lucas Brooks 11 M 25:23 8:11

9 Jaime Gaug 45 M 26:00 8:23

10 Ken White 63 M 26:36 8:34

11 tony wells 61 M 28:14 9:05

12 Sara Harrison 34 F 28:32 9:11

13 Scott Nielson 40 M 29:17 9:26

14 Heather Standorf 37 F 30:52 9:56

15 Ann Sill 34 F 33:36 10:49

16 Barb Dettinger 48 F 33:37 10:50

17 Vanessa Brooks 9 F 34:05 10:58

18 Kylie Dettinger 9 F 34:16 11:02

19 Robert Mahon 60 M 34:21 11:04

20 Abigail Pladson 10 F 34:44 11:11

21 Elizabeth Penza 10 F 34:46 11:12

22 Kristi Penza 36 F 34:47 11:12

23 Madison Pladson 12 F 35:10 11:19

24 Jaye Sopkowiak 55 F 36:04 11:37

25 Diane Hammel 65 F 36:26 11:44

26 Luke Benz 7 M 38:41 12:27

27 Michel Bemz 40 F 38:43 12:28

28 Emily Rivera 39 F 39:00 12:33

29 Becky Licatino 70 F 40:48 13:08

30 Kaitlin Lundquist 33 F 40:54 13:10

31 Ronald Wadley 64 M 40:55 13:10

32 Lucian Cojocaru 66 M 40:56 13:11

33 Susan Christian 69 F 41:02 13:13

34 MARK LICATINO 66 M 46:42 15:02

35 Lillian Thome 10 F 47:59 15:27

36 Ashlynn Puppe 10 F 48:00 15:27

37 Liliana Rivera 9 F 50:15 16:11

38 Avaia Wiertzema 10 F 50:22 16:13

39 Cadence Pladson 6 F 50:23 16:13

40 Riley Puppe 8 F 50:28 16:15

41 Jacqueline Puppe 40 F 50:29 16:15

42 Avery Thome 12 F 50:49 16:22

43 Alice Wiertzema 66 F 50:57 16:24

44 Dan Sill 33 M 51:20 16:32

45 Betsy Nielson 34 F 51:38 16:38

46 Marysia Tweet 37 F 52:58 17:03

47 Owen Tweet 7 M 53:53 17:21

48 Samuel Thome 6 M 55:04 17:44

49 Arianna Thome 41 F 55:38 17:55

50 Jim Rodrick, JR 45 M 56:23 18:09

51 Amelia Hollerud 6 F 56:25 18:10



24th Annual Spirit Run 10K

10/26/2019

Rochester, Minnesota



OVERALL RESULTS



Place Name Age S Time Pace

===== ========================== === = ======= =====

1 Dan Feda 45 M 34:39 5:35

2 Daniel Roellinger 39 M 41:56 6:45

3 Charlie Lonergan 37 M 42:15 6:48

4 Amber Uhlenhake 32 F 43:35 7:01

5 Cate Cox 14 F 49:14 7:56

6 Tom Woo 60 M 50:13 8:05

7 Steve DeBoer 64 M 50:24 8:07

8 Rick Fishbune 60 M 50:25 8:07

9 Dale Pfrimmer 41 M 51:36 8:19

10 Anna Sanchez 45 F 51:47 8:20

11 Keith Nelson 64 M 51:48 8:21

12 Heather Betts 37 F 52:01 8:23

13 Branda Anderson 38 F 52:21 8:26

14 Shannon Gladkowski 32 F 52:24 8:26

15 Chris Cox 43 M 52:27 8:27

16 Mary Rolfs 52 F 53:20 8:35

17 Katie Baures 37 F 53:32 8:37

18 Cathy Sell 42 F 53:51 8:40

19 Sonja Kranz 57 F 54:28 8:46

20 Stephen Saliba 59 M 55:01 8:52

21 Dana Gatzke 26 F 55:21 8:55

22 Ruth Hohnstein 56 F 55:37 8:57

23 Ray Gladkowski 35 M 55:45 8:59

24 Rich Dettinger 48 M 56:36 9:07

25 Jaden Anderson 11 M 57:53 9:19

26 Charlotte Krecke 29 F 1:01:08 9:51

27 Megan Jones 41 F 1:01:22 9:53

28 Diane Mann 67 F 1:02:03 10:00

29 Peggy Menzel 66 F 1:02:10 10:01

30 Jackie Stevermer-Bakken 54 F 1:03:02 10:09

31 Amanda Mikhail 43 F 1:03:21 10:12

32 Samantha Roellinger 35 F 1:03:55 10:18

33 Angela Boysen 39 F 1:04:02 10:19

34 John Mann 69 M 1:04:13 10:20

35 Sandra Dalquist 79 F 1:06:12 10:40

36 Liz Kilkus 28 F 1:06:28 10:42

37 Kelly OHara 61 M 1:08:39 11:03

38 Lydia Baude 47 F 1:09:14 11:09

39 Heather Owen 44 F 1:09:25 11:11

40 Aimee Bentall 41 F 10:00:00 96:34







Article Comment Submission Form
Please feel free to submit your comments.

Article comments are not posted immediately to the Web site. Each submission must be approved by the Web site editor, who may edit content for appropriateness. There may be a delay of 24-48 hours for any submission while the web site editor reviews and approves it.

Note: All information on this form is required. Your telephone number is for our use only, and will not be attached to your comment.
Submit an Article Comment
First Name:
Required
Last Name:
Required
Telephone:
Required
Email:
Required
Comment:
Required
Passcode:
Required
Anti-SPAM Passcode Click here to see a new mix of characters.
This is an anti-SPAM device. It is not case sensitive.
   



Calendar


Grand Prix sponsors







Life
Site Design and Content: Rochester Track Club
Copyright 2019 1up!

Software © 1998-2019 1up! Software, All Rights Reserved